#timestamp,LO_Frequency,Hit,StdDev 
1546790415.4,286046998.8,N
1546790435.3,286047001.1,N
1546790455.1,286047002.7,N
1546790475.8,286047000.8,N
1546790495.7,286047000.1,N
1546790515.5,286047002.8,N
1546790535.4,286047001.9,N
1546790555.2,286047000.0,N
1546790575.0,286047002.4,N
1546790575.9,286047002.4,N
1546790595.8,286047001.4,N
1546790615.6,286047002.0,N
1546790635.4,286047002.6,N
1546790655.3,286047001.3,N
1546790675.1,286047004.2,N
1546790695.9,286047004.0,N
1546790715.7,286047005.1,N
1546790735.5,286047002.9,N
1546790755.4,286047002.5,N
1546790775.2,286047002.0,N
1546790795.0,286047005.9,Y
1546790796.0,286047005.9,P
1546790815.8,286047004.1,N
1546790835.6,286047002.0,N
1546790855.5,286047002.3,N
1546790875.3,286047002.0,N
1546790895.1,286047001.4,N
1546790915.9,286047002.6,N
1546790935.7,286047000.9,N
1546790955.5,286047000.0,N
1546790975.4,286046998.1,N
1546790995.2,286047001.0,N
1546791015.1,286046998.1,N
1546791016.0,286046998.1,N
1546791035.8,286047000.0,N
1546791055.6,286046999.7,N
1546791075.5,286047001.2,N
1546791095.3,286047000.7,N
1546791115.1,286047001.2,N
1546791135.9,286046998.3,N
1546791155.7,286046998.4,N
1546791175.6,286046998.9,N
1546791195.4,286047000.4,N
1546791215.2,286047000.7,N
1546791235.1,286047000.5,N
1546791236.0,286047000.5,N
1546791255.8,286047002.2,N
1546791275.6,286047000.9,N
1546791295.5,286047001.9,N
1546791315.3,286046999.7,N
1546791335.2,286047000.6,N
1546791355.9,286047000.3,N
1546791375.7,286047000.3,N
1546791395.6,286047000.9,N
1546791415.4,286047000.0,N
1546791435.2,286047000.4,N
1546791455.1,286047001.0,N
1546791456.0,286047001.0,N
1546791475.8,286047003.1,N
1546791495.7,286047002.2,N
1546791515.5,286047000.7,N
1546791535.3,286046998.5,N
1546791555.2,286046999.4,N
1546791575.0,286047000.3,N
1546791575.9,286047000.3,N
1546791595.7,286047000.9,N
1546791615.6,286047000.6,N
1546791635.4,286046999.7,N
1546791655.3,286047002.5,N
1546791675.1,286047000.0,N
1546791676.0,286047000.0,N
1546791695.8,286047000.4,N
1546791715.7,286046999.9,N
1546791735.5,286047000.5,N
1546791755.3,286047001.2,N
1546791775.2,286046998.5,N
1546791795.0,286046996.5,Y
1546791795.9,286046996.5,P
1546791815.8,286046997.0,N
1546791835.6,286046997.2,N
1546791855.4,286046998.4,N
1546791875.3,286047000.8,N
1546791895.1,286047000.4,N
1546791915.9,286047000.6,N
1546791935.7,286046998.8,N
1546791955.5,286046998.4,N
1546791975.4,286046998.3,N
1546791995.2,286046998.9,N
1546792015.0,286046999.4,N
1546792015.9,286046999.4,N
1546792035.8,286046998.9,N
1546792055.6,286046999.1,N
1546792075.5,286046998.2,N
1546792095.3,286047000.7,N
1546792115.1,286047007.4,Y
1546792135.9,286047009.0,P
1546792155.7,286047007.1,N
1546792175.5,286047005.6,N
1546792195.4,286047006.0,N
1546792215.2,286047004.3,N
1546792235.1,286047002.5,N
1546792236.0,286047002.5,N
1546792255.8,286047003.8,N
1546792275.6,286046999.7,N
1546792295.5,286047000.2,N
1546792315.3,286047002.4,N
1546792335.1,286047001.9,N
1546792355.9,286047005.3,N
1546792375.7,286047003.9,N
1546792395.6,286047002.0,N
1546792415.4,286047002.8,N
1546792435.2,286047002.4,N
1546792455.1,286046999.9,N
1546792456.0,286046999.9,N
1546792475.8,286047002.5,N
1546792495.6,286047002.0,N
1546792515.5,286047002.6,N
1546792535.3,286047000.2,N
1546792555.2,286047003.5,N
1546792575.9,286047001.6,N
1546792595.7,286046999.9,N
1546792615.6,286046999.7,N
1546792635.4,286047001.6,N
1546792655.2,286047002.2,N
1546792675.1,286047002.7,N
1546792676.0,286047002.7,N
1546792695.8,286047000.3,N
1546792715.7,286047000.2,N
1546792735.5,286047002.1,N
1546792755.3,286047002.4,N
1546792775.2,286047000.2,N
1546792795.0,286047004.2,N
1546792795.9,286047004.2,N
1546792815.7,286047002.4,N
1546792835.6,286047000.1,N
1546792855.4,286047003.9,N
1546792875.3,286047004.4,N
1546792895.1,286047004.3,N
1546792896.0,286047004.3,N
1546792915.8,286047003.3,N
1546792935.7,286047004.2,N
1546792955.5,286047004.2,N
1546792975.3,286047002.5,N
1546792995.2,286046999.9,N
1546793015.0,286047002.6,N
1546793015.9,286047002.6,N
1546793035.8,286047003.3,N
1546793055.6,286047002.9,N
1546793075.4,286047004.2,N
1546793095.3,286047002.1,N
1546793115.1,286047002.7,N
1546793135.8,286047002.7,N
1546793155.7,286047004.4,Y
1546793175.5,286046999.0,P
1546793195.4,286046998.9,N
1546793215.2,286047000.8,N
1546793235.0,286047000.9,N
1546793235.9,286047000.9,N
1546793255.8,286047001.1,N
1546793275.6,286046998.7,N
1546793295.4,286046998.1,N
1546793315.3,286046998.4,N
1546793335.1,286047001.2,N
1546793355.9,286046998.1,N
1546793375.7,286047001.1,N
1546793395.5,286046999.4,N
1546793415.4,286046998.9,N
1546793435.2,286046998.9,N
1546793455.0,286046998.2,N
1546793455.9,286046998.2,N
1546793475.8,286046998.5,N
1546793495.6,286047001.0,N
1546793515.5,286047011.9,Y
1546793535.3,286047001.8,P
1546793555.1,286047002.3,N
1546793575.9,286047000.3,N
1546793595.7,286047000.4,N
1546793615.5,286047000.9,N
1546793635.4,286046999.4,N
1546793655.2,286046998.7,N
1546793675.1,286046999.0,N
1546793676.0,286046999.0,N
1546793695.8,286046997.0,N
1546793715.6,286046999.4,N
1546793735.5,286046998.3,N
1546793755.3,286046999.6,N
1546793775.1,286046998.2,N
1546793795.9,286047000.0,N
1546793815.7,286046998.5,N
1546793835.6,286046999.2,N
1546793855.4,286047000.5,N
1546793875.2,286047000.3,N
1546793895.1,286046998.5,N
1546793896.0,286046998.5,N
1546793915.8,286046999.1,N
1546793935.6,286046999.4,N
1546793955.5,286047002.1,N
1546793975.3,286047003.3,N
1546793995.2,286047004.0,N
